Погода в Нешукае

Россия / Республика Адыгея     44°54′24″N   39°25′01″E
темп.,
°C
ветер,
м/с
пор.,
м/с
влажн.,
%
обл.,
%
осадки,
мм/ч
давл.,
гПа
погр.,
м
27 ноября, сб
сб2700:00+4вюв36710 0.0 101983
03:00+3вюв457185 0.0 101676
06:00+4в4668100 0.0 101579
09:00+6вюв3469100 0.0 101466
12:00+9юв3763100 0.0 1013103
15:00+12ююз3557100 0.0 101395
18:00+12ю466499 0.1 101386
21:00+11юв347294 0.1 101343
28 ноября, вс
вс2800:00+10ю3371100 0.0 101333
03:00+11ююв2278100 0.6 101315
06:00+12ююз51283100 0.9 1013238
09:00+12ююв4984100 1.3 1013218
12:00+14ююв3676100 0.0 1013241
15:00+15юв227499 0.1 101326
18:00+13вюв228291 0.0 101317
21:00+12вюв3380100 0.0 101336
29 ноября, пн
пн2900:00+12юв348228 0.1 101371
03:00+11юв4684100 0.3 101281
06:00+11вюв44835 0.1 101154
09:00+12юв4677100 0.1 101194
12:00+20ююз81647100 0.0 1009973
15:00+21ю61343100 0.0 1007367
18:00+19ююз61448100 0.0 1006296
21:00+18зюз5115095 0.0 1005177
30 ноября, вт
вт3000:00+17зюз71465100 0.0 1005470
03:00+14юз71485100 0.9 1006832
06:00+13ююз101686100 3.4 10051092
09:00+14ююз101773100 4.8 10061065
12:00+16юз9166813 0.0 10051464
15:00+14ююз81373100 0.3 1004957
18:00+12ю4883100 0.1 1001368
21:00+11вюв5885100 1.9 996312
1 декабря, ср
ср100:00+10зсз81194100 7.5 997713
03:00+11юз81771100 11.1 9981438
06:00+4зсз111791100 0.5 1006979
09:00+6зюз7971100 0.6 10111111
12:00+7з6863100 0.0 1011997
15:00+7з57595 0.0 10111108
18:00+6з47695 0.0 1012152
21:00+5зюз47731 0.0 1013145